Regional Weather Roundup
Issued by NWS Sterling, VA

Home | Current Version | Previous Version | Graphics & Text | Print | Product List | Glossary On
Versions: 1 2 3 4 5 6 7 8 9 10 11 12 13 14 15 16 17 18 19 20 21 22 23 24 25 26 27 28 29 30 31 32 33 34 35 36 37 38 39 40 41 42 43 44 45 46 47 48 49 50
000
ASUS41 KLWX 280810
RWRLWX

REGIONAL WEATHER ROUNDUP
NATIONAL WEATHER SERVICE BALTIMORE MD/WASHINGTON DC
300 AM EST SUN DEC 28 2014

Note: "FAIR" indicates few or no clouds below 12,000 feet
with no significant weather and/or obstructions to visibility.
 TC=TEMPERATURE CELSIUS

 * =Non NWS site. Station does not report precipitation (e.g. rain,
    snow, etc.), thunder, or fog.

DCZ001-MDZ009-015-VAZ040>042-051-053>054-280900-
WASHINGTON METRO

CITY           SKY/WX    TMP DP  RH WIND       PRES   REMARKS
WASHINGTON NAT MOCLDY    49  38  65 S9        29.99F
DULLES         MOCLDY    47  37  68 S6        29.97F
ANDREWS AFB    MOCLDY    49  38  65 S10       29.97F
FT BELVOIR     MOCLDY    41  37  86 CALM      30.00F
QUANTICO       MOCLDY    46  39  76 SW10      30.00F
COLLEGE PARK*  MOCLDY    39  36  87 CALM      29.98F
LEESBURG*      CLOUDY    43  36  75 CALM      29.97F
MANASSAS*      PTCLDY    48  41  76 S5        29.98F
GAITHERSBURG*  CLOUDY    45  36  70 CALM      30.01S

$$

MDZ006>007-011-014-280900-
BALTIMORE METRO

CITY           SKY/WX    TMP DP  RH WIND       PRES   REMARKS
BWI AIRPORT    MOCLDY    39  35  86 CALM      29.98F
MD SCIENCE CTR   N/A     43  37  79 MISG      30.00F
MARTIN STATE   PTCLDY    37  37 100 CALM      30.00F
ANNAPOLIS      CLOUDY    46  40  79 S7        29.99F
FORT MEADE*    PTCLDY    36  34  93 CALM      30.01F

$$

MDZ012-015-019>023-280900-
MARYLAND EASTERN SHORE

CITY           SKY/WX    TMP DP  RH WIND       PRES   REMARKS
OCEAN CITY     MOCLDY    48  42  80 SW8       30.05F
SALISBURY      PTCLDY    49  40  71 S8        30.04F
BAY BRIDGE AP* LGT RAIN  46  37  71 S7        29.99F
CAMBRIDGE*     MOCLDY    48  41  76 S3        30.02F
EASTON*        CLOUDY    51  42  72 SW9       30.04F

$$

MDZ017>025-280900-
SOUTHERN MARYLAND

CITY           SKY/WX    TMP DP  RH WIND       PRES   REMARKS
PATUXENT RIVER MOCLDY    51  37  58 SW13      30.02S
ST INIGOES     CLOUDY    51  37  58 S10       30.03S
LEONARDTOWN*   MOCLDY    52  36  54 SW7       30.04F

$$

MDZ003>005-280900-
NORTH CENTRAL MARYLAND

CITY           SKY/WX    TMP DP  RH WIND       PRES   REMARKS
FREDERICK*     CLOUDY    43  34  70 CALM      29.99F
HAGERSTOWN APT CLOUDY    46  35  65 W5        29.95S
WESTMINSTER*   CLOUDY    46  37  71 S5        29.95F

$$

MDZ501>502-280900-
WESTERN MARYLAND

CITY           SKY/WX    TMP DP  RH WIND       PRES   REMARKS
OAKLAND*       CLOUDY    43  32  65 W9G17     29.98F
CUMBERLAND*    MOCLDY    43  34  70 NE5       30.00F

$$

VAZ025>031-280900-
SHENANDOAH VALLEY

CITY           SKY/WX    TMP DP  RH WIND       PRES   REMARKS
WINCHESTER*    CLOUDY    54  21  28 W8        29.95F
FRONT ROYAL*   CLOUDY    52  30  43 CALM      29.94F
LURAY*         PTSUNNY   54  32  43 SW9       29.96F
NEW MARKET*    FAIR      50  32  50 W7        29.96F
STAUNTON*      PTCLDY    45  32  60 S5        29.98F
WAYNESBORO*    FAIR      43  30  59 CALM      29.98F

$$

WVZ021-048>050-054>055-280900-
EASTERN WEST VIRGINIA PANHANDLE

CITY           SKY/WX    TMP DP  RH WIND       PRES   REMARKS
MARTINSBURG    CLOUDY    46  32  58 NW6       29.95S
PETERSBURG*    MOCLDY    39  35  84 SE5       29.96F

$$

VAZ036>039-050-280900-
CENTRAL FOOTHILLS

CITY           SKY/WX    TMP DP  RH WIND       PRES   REMARKS
CHARLOTTESVILL CLEAR     49  37  63 S12       29.97F
CULPEPER*      PTCLDY    50  39  66 SW3       29.98F
ORANGE*        PTCLDY    43  37  81 CALM      30.00F
GORDONSVILLE*  FAIR      43  37  78 SW6       29.99F
WARRENTON*     FAIR      53  44  71 SW7       29.97F

$$

VAZ055>057-280900-
NORTH AND CENTRAL PIEDMONT

CITY           SKY/WX    TMP DP  RH WIND       PRES   REMARKS
FREDERICKSBRG* PTCLDY    53  39  60 S8        29.99F
STAFFORD*      PTCLDY    49  37  63 S3        30.03F

$$

NCZ024-NYZ072-PAZ021-071-VAZ022-071-280900-
OTHER REGIONAL OBSERVATIONS

CITY           SKY/WX    TMP DP  RH WIND       PRES   REMARKS
NEW YORK CITY  MOCLDY    50  35  56 W8G18     29.98F
PHILADELPHIA   MOCLDY    41  36  82 CALM      29.99F
PITTSBURGH     LGT RAIN  46  45  96 SW3       29.96S FOG
ROANOKE        MOCLDY    50  34  54 SW5       30.05F
RICHMOND       PTCLDY    48  38  68 S8        30.06F
RALEIGH        CLOUDY    48  39  71 SW5       30.14F

$$

ANZ530>537-280900-
MARINE OBSERVATIONS

STATION/POSITION TIME  TEMP    WIND        PRES
                       AIR SEA DIR/SP/G
                 (UTC) (F)     (DEG/KT/KT) (MB)
THOMAS PT LIGHT  0800   46 43  170/ 14/ 15 1016.6F
BALT KEY BRIDGE  0800   41      70/  1/  2 1015.3F
COVE POINT       0800   51     210/  8/ 12 1016.4F
LEWISETTA        0800   53 44  230/ 15/ 20 1016.5F
SOLOMONS ISLAND  0800      44                N/A
PINEY POINT      0800          240/  7/  9   N/A

$$



USA.gov is the U.S. government's official web portal to all federal, state and local government web resources and services.